TimeEST,TemperatureF,Dew PointF,Humidity,Sea Level PressureIn,VisibilityMPH,Wind Direction,Wind SpeedMPH,Gust SpeedMPH,PrecipitationIn,Events,Conditions,WindDirDegrees,DateUTC
12:54 AM,37.9,24.1,57,30.05,10.0,Calm,Calm,-,N/A,,Mostly Cloudy,0,2013-03-05 05:54:00
2:54 AM,37.9,27.0,65,30.06,10.0,Calm,Calm,-,N/A,,Overcast,0,2013-03-05 07:54:00
3:54 AM,37.0,27.0,67,30.04,10.0,Calm,Calm,-,N/A,,Scattered Clouds,0,2013-03-05 08:54:00
4:54 AM,36.0,28.0,73,30.05,10.0,Calm,Calm,-,N/A,,Overcast,0,2013-03-05 09:54:00
5:54 AM,34.0,27.0,75,30.06,10.0,Calm,Calm,-,N/A,,Partly Cloudy,0,2013-03-05 10:54:00
6:54 AM,35.1,27.0,72,30.04,10.0,Calm,Calm,-,N/A,,Clear,0,2013-03-05 11:54:00
8:54 AM,43.0,26.1,51,30.04,10.0,South,3.5,-,N/A,,Clear,180,2013-03-05 13:54:00
9:54 AM,45.0,24.1,44,30.02,-9999.0,SSE,5.8,-,0.06,,Overcast,160,2013-03-05 14:54:00
10:54 AM,45.0,26.1,48,30.01,10.0,South,6.9,-,0.00,Rain,Light Rain,180,2013-03-05 15:54:00
11:54 AM,42.1,37.0,82,29.99,5.0,SE,3.5,-,0.01,Rain,Light Rain,130,2013-03-05 16:54:00
12:07 PM,41.0,37.4,87,29.97,5.0,SE,4.6,-,0.00,Rain,Light Rain,130,2013-03-05 17:07:00
12:26 PM,42.8,39.2,87,29.95,2.0,SE,3.5,-,0.02,Rain,Light Rain,130,2013-03-05 17:26:00
12:54 PM,43.0,41.0,93,29.95,2.5,SSE,3.5,-,0.04,Rain,Light Rain,150,2013-03-05 17:54:00
1:18 PM,42.8,41.0,93,29.93,3.0,Calm,Calm,-,0.00,,Overcast,0,2013-03-05 18:18:00
1:22 PM,42.8,41.0,93,29.93,2.5,South,3.5,-,0.00,Rain,Light Rain,180,2013-03-05 18:22:00
1:32 PM,42.8,41.0,93,29.92,3.0,Variable,3.5,-,0.00,Rain,Light Rain,0,2013-03-05 18:32:00
1:54 PM,43.0,41.0,93,29.91,4.0,South,3.5,-,0.00,,Overcast,170,2013-03-05 18:54:00
2:54 PM,44.1,41.0,89,29.89,4.0,SSE,3.5,-,0.00,,Overcast,150,2013-03-05 19:54:00
3:54 PM,43.0,41.0,93,29.87,2.0,SE,3.5,-,0.02,Rain,Rain,140,2013-03-05 20:54:00
4:27 PM,42.8,42.8,100,29.86,1.5,Calm,Calm,-,0.02,Rain,Light Rain,0,2013-03-05 21:27:00
4:51 PM,42.8,42.8,100,29.85,1.5,East,3.5,-,0.03,Rain,Light Rain,100,2013-03-05 21:51:00
4:54 PM,43.0,42.1,97,29.85,1.5,East,3.5,-,0.03,Rain,Light Rain,90,2013-03-05 21:54:00
5:32 PM,42.8,42.8,100,29.83,1.5,East,3.5,-,0.00,,Overcast,90,2013-03-05 22:32:00
5:54 PM,43.0,42.1,97,29.81,1.0,ENE,4.6,-,0.00,,Overcast,60,2013-03-05 22:54:00
6:14 PM,42.8,42.8,100,29.80,2.5,East,3.5,-,N/A,,Overcast,80,2013-03-05 23:14:00
6:54 PM,43.0,41.0,93,29.77,2.0,East,6.9,-,N/A,,Overcast,90,2013-03-05 23:54:00
7:54 PM,43.0,42.1,97,29.70,3.0,East,6.9,-,0.00,Rain,Light Rain,90,2013-03-06 00:54:00
8:35 PM,44.6,42.8,93,29.66,2.5,East,6.9,-,0.02,Rain,Light Rain,80,2013-03-06 01:35:00
8:54 PM,44.1,43.0,96,29.65,2.5,East,8.1,-,0.05,Rain,Light Rain,90,2013-03-06 01:54:00
9:01 PM,44.6,42.8,93,29.64,3.0,ESE,6.9,16.1,0.00,Rain,Light Rain,110,2013-03-06 02:01:00
9:12 PM,44.6,42.8,93,29.63,2.0,East,6.9,-,0.03,Rain,Rain,90,2013-03-06 02:12:00
9:30 PM,44.6,42.8,93,29.63,2.0,East,5.8,-,0.10,Rain,Rain,90,2013-03-06 02:30:00
9:54 PM,45.0,44.1,97,29.64,3.0,Variable,3.5,-,0.11,Rain,Light Rain,0,2013-03-06 02:54:00
10:33 PM,44.6,44.6,100,29.61,4.0,Calm,Calm,-,0.00,,Overcast,0,2013-03-06 03:33:00
10:54 PM,45.0,43.0,93,29.60,3.0,Calm,Calm,-,0.00,,Overcast,0,2013-03-06 03:54:00
11:10 PM,44.6,42.8,93,29.58,2.5,Calm,Calm,-,N/A,,Overcast,0,2013-03-06 04:10:00
11:36 PM,44.6,42.8,93,29.57,3.0,NNW,3.5,-,N/A,,Overcast,330,2013-03-06 04:36:00
11:54 PM,44.1,43.0,96,29.57,4.0,NNW,6.9,-,0.00,,Overcast,340,2013-03-06 04:54:00